Location: Newark
(57.7279°N, 5.6916°W)
Time: 08:33:50
(UTC+00:00)

N. Korean satellite - Pass Details

Date: 07 December 2019
Orbit: 454 x 508 km, 97.2° (Epoch: 19 January)

Event Time Altitude Azimuth Distance (km) Brightness Sun altitude
Rises 06:13:41 0° 17° (NNE) 2,588 10.3 -19.0°
Reaches altitude 10° 06:15:50 10° 22° (NNE) 1,692 9.4 -18.7°
Maximum altitude 06:19:24 54° 100° (E) 595 7.3 -18.2°
Drops below altitude 10° 06:22:53 10° 180° (S) 1,646 9.4 -17.8°
Sets 06:24:56 0° 185° (S) 2,510 10.3 -17.5°
